Location: *
(41.3833°S, 177.8333°W)
Time: 20:08:35
(UTC+00:00)

Helios 1A Rocket - Pass Details

Date: 01 April 2020
Orbit: 564 x 586 km, 98.3° (Epoch: 31 May)

Event Time Altitude Azimuth Distance (km) Brightness Sun altitude
Rises 17:05:13 0° 18° (NNE) 2,772 6.6 -12.6°
Reaches altitude 10° 17:07:20 10° 19° (NNE) 1,886 5.7 -12.2°
Maximum altitude 17:11:25 80° 105° (ESE) 600 3.1 -11.4°
Drops below altitude 10° 17:15:36 10° 191° (S) 1,928 5.5 -10.6°
Sets 17:17:47 0° 191° (SSW) 2,840 6.4 -10.2°
